2020-085L

Last updated on Thu Dec 03 2020 00:02:04 GMT+0000 (Coordinated Universal Time)

1 46939U 20085L 20337.62575374 .00006576 00000-0 29858-3 0 9999 2 46939 97.3699 112.0032 0015129 255.1393 104.8184 15.21018287 1902

Satellite not in orbit

2020-085L